Temp
-7 -7 -7 -7 -7 -7 -7 -7 -6 -6 -6 -6 -6 -6 -6 -6 -6 -6 -6 -6 -6 -6 -6 -6 -6 -6 -6 -6 -5 -5 -6 -6 -6 -5 -5 -6 -3 -4 -5 -4 -4 -4 -5 -5 -5
-7 -7 -7 -7 -7 -7 -7 -7 -7 -7 -6 -6 -6 -6 -5 -5 -6 -6 -6 -5 -6 -6 -6 -6 -6 -6 -6 -6 -5 -5 -6 -7 -7 -7 -5 -5 -3 -3 -3 -3 -4 -4 -4 -5 -5
-7 -7 -7 -7 -7 -7 -7 -7 -7 -7 -7 -6 -6 -5 -5 -5 -5 -5 -6 -6 -6 -6 -6 -6 -6 -6 -6 -6 -6 -7 -6 -7 -8 -6 -5 -5 -3 -3 -3 -3 -4 -4 -4 -4 -5
-7 -7 -7 -7 -7 -7 -6 -6 -6 -6 -7 -7 -6 -6 -5 -5 -5 -5 -5 -6 -6 -6 -6 -6 -6 -6 -7 -6 -6 -6 -7 -8 -8 -6 -6 -5 -3 -3 -3 -4 -4 -4 -4 -4 -4
-6 -6 -7 -7 -7 -7 -7 -6 -6 -6 -6 -6 -6 -6 -6 -5 -5 -4 -5 -5 -5 -6 -6 -6 -6 -7 -6 -6 -7 -8 -7 -8 -8 -6 -6 -5 -4 -4 -4 -4 -4 -4 -4 -4 -5
-6 -6 -6 -6 -6 -6 -7 -7 -6 -6 -6 -6 -6 -6 -6 -6 -5 -5 -5 -5 -5 -5 -6 -6 -6 -6 -7 -7 -8 -8 -8 -8 -8 -6 -6 -4 -3 -3 -3 -3 -4 -4 -4 -4 -5
-7 -7 -7 -7 -6 -6 -6 -6 -7 -6 -6 -6 -6 -6 -6 -7 -6 -5 -5 -5 -5 -5 -6 -6 -6 -6 -7 -6 -6 -7 -7 -8 -8 -5 -5 -5 -4 -3 -3 -3 -4 -4 -4 -4 -4
-9 -8 -8 -8 -7 -7 -6 -6 -6 -6 -6 -6 -6 -6 -6 -7 -6 -5 -5 -5 -5 -5 -5 -6 -6 -6 -6 -7 -6 -7 -6 -7 -7 -5 -5 -5 -5 -4 -3 -3 -3 -4 -4 -4 -4
-10 -10 -9 -9 -9 -8 -8 -7 -6 -6 -6 -6 -6 -6 -6 -7 -6 -6 -6 -6 -5 -5 -5 -6 -6 -6 -6 -6 -6 -6 -6 -7 -6 -5 -5 -6 -6 -3 -4 -3 -3 -3 -4 -4 -4
-12 -12 -11 -11 -11 -11 -10 -9 -8 -7 -6 -6 -6 -6 -6 -6 -6 -6 -6 -6 -5 -6 -5 -5 -6 -6 -6 -6 -6 -5 -6 -7 -6 -7 -7 -6 -6 -3 -4 -3 -3 -3 -4 -4 -4
-13 -13 -13 -12 -12 -12 -12 -11 -10 -8 -8 -7 -6 -7 -6 -6 -7 -7 -6 -6 -6 -5 -5 -5 -5 -5 -5 -6 -6 -6 -7 -7 -7 -6 -7 -7 -6 -4 -6 -4 -3 -3 -3 -3 -4
-13 -13 -13 -13 -13 -13 -13 -12 -12 -10 -9 -8 -7 -6 -7 -6 -6 -6 -6 -6 -6 -5 -6 -6 -5 -6 -6 -6 -6 -6 -7 -7 -6 -6 -5 -6 -6 -3 -4 -5 -3 -3 -3 -3 -3
-14 -14 -14 -14 -14 -14 -14 -13 -13 -12 -10 -10 -8 -7 -6 -6 -7 -7 -7 -6 -6 -6 -6 -6 -5 -6 -6 -6 -6 -6 -6 -7 -7 -7 -6 -6 -6 -6 -4 -4 -3 -3 -3 -3 -3
-14 -14 -14 -14 -14 -14 -14 -14 -14 -14 -12 -11 -9 -8 -7 -7 -7 -7 -7 -7 -7 -6 -6 -6 -6 -6 -6 -6 -6 -6 -5 -6 -7 -7 -6 -6 -6 -5 -5 -4 -4 -3 -3 -3 -3
-14 -14 -14 -14 -14 -14 -14 -14 -14 -14 -14 -14 -12 -9 -8 -8 -7 -7 -7 -7 -7 -7 -7 -5 -6 -6 -6 -6 -6 -5 -6 -7 -7 -7 -7 -6 -6 -6 -5 -5 -3 -4 -3 -3 -3
-14 -14 -14 -14 -14 -14 -14 -14 -14 -14 -14 -14 -15 -12 -10 -9 -8 -8 -8 -7 -8 -7 -7 -6 -6 -7 -6 -6 -6 -6 -7 -7 -7 -7 -7 -6 -6 -5 -5 -6 -5 -4 -4 -3 -3
-14 -14 -14 -14 -14 -14 -14 -14 -14 -14 -15 -15 -15 -15 -13 -12 -10 -9 -9 -7 -7 -7 -7 -7 -6 -7 -7 -8 -6 -7 -8 -7 -7 -7 -6 -6 -6 -6 -6 -6 -6 -5 -4 -4 -3
-14 -14 -14 -14 -14 -15 -15 -15 -14 -14 -15 -16 -16 -16 -14 -13 -11 -11 -10 -9 -8 -8 -8 -7 -7 -6 -7 -7 -8 -6 -7 -7 -7 -6 -6 -5 -6 -5 -5 -5 -5 -5 -5 -5 -4
-14 -14 -14 -14 -15 -15 -15 -15 -15 -16 -18 -15 -15 -14 -14 -14 -13 -12 -13 -10 -9 -9 -8 -8 -7 -8 -7 -7 -8 -8 -8 -7 -7 -6 -6 -5 -5 -6 -5 -6 -6 -6 -5 -5 -5
-14 -14 -14 -15 -15 -15 -15 -15 -16 -17 -15 -14 -14 -14 -14 -14 -16 -14 -14 -12 -10 -10 -9 -8 -10 -9 -8 -9 -8 -9 -8 -7 -7 -8 -6 -5 -5 -6 -7 -5 -5 -5 -7 -6 -5
-14 -15 -14 -15 -15 -15 -16 -16 -17 -16 -15 -15 -15 -15 -15 -14 -15 -16 -15 -13 -13 -13 -11 -9 -10 -9 -9 -8 -8 -7 -8 -8 -7 -7 -6 -5 -5 -5 -5 -5 -5 -4 -7 -7 -6
-15 -16 -15 -16 -16 -16 -17 -16 -16 -17 -17 -17 -17 -16 -15 -15 -14 -14 -16 -14 -14 -13 -12 -11 -10 -10 -10 -9 -8 -7 -7 -8 -7 -6 -6 -6 -5 -5 -5 -5 -5 -5 -6 -7 -6
-15 -15 -15 -17 -17 -18 -18 -18 -18 -19 -19 -18 -17 -17 -16 -16 -16 -15 -14 -14 -14 -14 -13 -12 -10 -9 -10 -9 -9 -9 -8 -7 -8 -6 -7 -6 -6 -7 -5 -7 -6 -6 -5 -5 -6
-15 -16 -17 -16 -17 -18 -19 -20 -20 -20 -19 -19 -19 -18 -17 -16 -16 -15 -15 -14 -14 -14 -12 -11 -10 -9 -10 -9 -8 -8 -7 -8 -8 -7 -6 -7 -6 -8 -7 -6 -6 -6 -4 -5 -5
-15 -16 -17 -18 -18 -19 -20 -20 -21 -21 -20 -20 -20 -19 -19 -18 -17 -17 -16 -15 -14 -14 -12 -10 -10 -8 -9 -9 -8 -9 -7 -8 -8 -8 -6 -6 -7 -7 -6 -6 -7 -7 -5 -4 -5
-15 -16 -17 -18 -19 -21 -22 -22 -22 -24 -24 -24 -24 -23 -19 -18 -18 -17 -18 -17 -16 -14 -13 -13 -10 -9 -9 -9 -9 -9 -9 -9 -8 -8 -7 -6 -7 -7 -7 -7 -6 -7 -6 -5 -5
-15 -16 -18 -19 -20 -22 -23 -24 -25 -26 -25 -24 -24 -24 -23 -18 -18 -18 -16 -16 -17 -16 -14 -13 -11 -10 -9 -9 -9 -9 -9 -9 -8 -8 -8 -6 -7 -7 -8 -7 -7 -6 -7 -6 -6
Height
5869 5868 5867 5867 5866 5865 5865 5864 5864 5865 5866 5866 5868 5868 5871 5873 5874 5876 5880 5881 5883 5885 5887 5889 5892 5894 5894 5898 5902 5901 5903 5905 5901 5901 5898 5901 5903 5900 5903 5901 5900 5900 5900 5901 5901
5864 5863 5863 5863 5862 5861 5861 5861 5861 5861 5861 5862 5863 5864 5865 5868 5870 5874 5875 5879 5881 5883 5885 5888 5890 5893 5894 5898 5899 5900 5901 5902 5906 5906 5904 5907 5904 5904 5904 5903 5902 5901 5901 5901 5902
5860 5858 5858 5857 5857 5856 5856 5856 5856 5857 5856 5856 5857 5860 5861 5863 5866 5869 5873 5875 5878 5881 5883 5885 5888 5891 5893 5897 5898 5901 5901 5905 5908 5906 5907 5906 5906 5905 5906 5905 5904 5902 5903 5903 5904
5854 5853 5852 5851 5850 5850 5850 5850 5850 5851 5852 5852 5853 5854 5856 5859 5860 5868 5869 5871 5874 5878 5880 5883 5886 5889 5891 5895 5899 5902 5905 5908 5908 5907 5909 5909 5906 5906 5906 5905 5904 5905 5904 5905 5906
5848 5846 5845 5844 5843 5843 5842 5843 5844 5845 5846 5847 5848 5849 5850 5854 5855 5860 5864 5866 5870 5874 5878 5881 5884 5886 5890 5893 5898 5903 5904 5908 5906 5906 5908 5906 5906 5907 5906 5906 5907 5907 5906 5907 5908
5839 5838 5837 5836 5835 5835 5834 5835 5836 5838 5839 5841 5842 5843 5845 5849 5848 5855 5858 5862 5866 5870 5874 5877 5882 5885 5887 5890 5893 5902 5903 5905 5907 5904 5905 5906 5907 5907 5908 5908 5909 5908 5909 5909 5908
5829 5828 5827 5826 5825 5826 5826 5827 5827 5829 5831 5833 5836 5837 5841 5841 5845 5849 5852 5856 5860 5865 5870 5873 5877 5881 5885 5887 5892 5895 5900 5902 5905 5903 5905 5906 5907 5907 5909 5910 5910 5910 5910 5911 5909
5818 5816 5815 5814 5814 5814 5816 5816 5818 5820 5822 5824 5827 5830 5835 5835 5839 5843 5845 5850 5855 5860 5865 5868 5872 5876 5880 5886 5889 5894 5898 5902 5906 5905 5906 5908 5907 5908 5909 5911 5911 5912 5912 5912 5910
5807 5804 5802 5802 5802 5802 5803 5804 5806 5809 5812 5816 5819 5822 5826 5831 5832 5837 5840 5844 5849 5853 5859 5864 5868 5874 5878 5882 5887 5892 5896 5900 5899 5904 5905 5908 5908 5906 5909 5911 5912 5913 5913 5912 5911
5796 5793 5790 5790 5790 5790 5790 5792 5793 5796 5801 5804 5809 5815 5816 5821 5827 5832 5835 5837 5843 5847 5852 5859 5864 5869 5873 5878 5884 5891 5895 5902 5899 5904 5905 5905 5908 5906 5909 5911 5913 5914 5914 5913 5912
5786 5783 5781 5781 5780 5779 5782 5780 5784 5785 5788 5792 5798 5803 5808 5814 5819 5823 5828 5830 5835 5840 5845 5854 5858 5862 5870 5877 5884 5888 5897 5901 5899 5903 5907 5905 5909 5905 5908 5912 5912 5914 5914 5914 5913
5778 5775 5773 5773 5771 5770 5770 5770 5771 5771 5780 5779 5784 5792 5796 5803 5811 5817 5822 5826 5829 5836 5842 5844 5848 5861 5868 5874 5878 5882 5889 5900 5899 5898 5901 5905 5904 5903 5909 5910 5912 5914 5914 5914 5914
5769 5766 5764 5764 5763 5762 5762 5761 5761 5760 5762 5773 5772 5780 5787 5793 5804 5809 5814 5819 5824 5829 5833 5838 5853 5858 5862 5867 5873 5880 5883 5893 5895 5892 5895 5909 5912 5902 5906 5910 5910 5913 5914 5914 5915
5761 5759 5758 5757 5759 5756 5756 5755 5754 5753 5753 5755 5761 5768 5775 5783 5792 5798 5805 5813 5814 5821 5827 5833 5845 5847 5854 5861 5869 5876 5882 5889 5891 5888 5882 5906 5908 5903 5903 5907 5911 5911 5914 5915 5916
5755 5754 5754 5753 5752 5751 5750 5749 5749 5748 5751 5752 5748 5758 5763 5773 5780 5788 5798 5802 5808 5817 5820 5830 5833 5838 5846 5856 5865 5873 5879 5885 5892 5888 5890 5897 5896 5902 5897 5902 5905 5910 5911 5915 5916
5750 5749 5749 5747 5746 5745 5743 5743 5744 5746 5746 5751 5745 5747 5755 5762 5770 5777 5785 5792 5804 5810 5812 5823 5827 5834 5842 5851 5859 5869 5875 5880 5885 5888 5884 5892 5897 5899 5899 5903 5903 5906 5909 5912 5915
5747 5745 5743 5741 5738 5736 5736 5736 5738 5739 5744 5746 5747 5742 5744 5749 5756 5765 5774 5782 5791 5798 5801 5812 5817 5825 5834 5843 5852 5858 5867 5873 5879 5881 5884 5893 5892 5897 5898 5901 5902 5902 5905 5909 5912
5741 5737 5734 5731 5728 5727 5725 5726 5727 5730 5732 5736 5738 5737 5739 5742 5747 5753 5764 5772 5783 5791 5799 5807 5813 5818 5826 5833 5845 5851 5859 5865 5872 5879 5886 5891 5889 5894 5891 5892 5891 5888 5901 5906 5909
5732 5727 5723 5721 5717 5715 5715 5715 5717 5719 5718 5721 5724 5726 5731 5736 5742 5744 5751 5763 5773 5781 5790 5800 5807 5816 5822 5830 5836 5845 5848 5863 5873 5881 5884 5887 5889 5888 5883 5885 5895 5883 5896 5901 5907
5725 5717 5715 5708 5707 5705 5705 5705 5705 5703 5705 5708 5713 5716 5721 5727 5733 5740 5744 5754 5763 5771 5784 5794 5803 5810 5816 5824 5829 5835 5849 5854 5859 5867 5874 5883 5888 5888 5886 5894 5891 5896 5901 5900 5901
5716 5708 5704 5700 5697 5694 5693 5692 5688 5684 5688 5694 5698 5703 5709 5715 5721 5722 5735 5750 5758 5765 5775 5788 5791 5802 5813 5810 5819 5827 5833 5845 5859 5865 5871 5876 5885 5891 5887 5888 5887 5893 5899 5900 5901
5708 5702 5693 5689 5685 5681 5679 5674 5673 5672 5674 5679 5683 5688 5694 5700 5707 5712 5716 5733 5742 5748 5758 5774 5782 5787 5796 5810 5816 5822 5830 5839 5846 5856 5864 5870 5876 5882 5886 5888 5889 5894 5896 5897 5899
5701 5693 5685 5681 5674 5670 5664 5661 5658 5658 5659 5661 5666 5670 5675 5685 5691 5699 5707 5713 5718 5732 5744 5753 5765 5780 5789 5804 5809 5812 5822 5832 5843 5854 5859 5865 5871 5868 5877 5877 5885 5887 5887 5892 5897
5691 5681 5673 5666 5661 5657 5651 5647 5645 5641 5644 5646 5650 5654 5661 5672 5680 5690 5699 5710 5707 5720 5727 5742 5756 5763 5779 5794 5805 5806 5814 5823 5835 5843 5851 5858 5868 5871 5872 5881 5881 5877 5885 5892 5896
5682 5672 5665 5657 5648 5642 5638 5635 5632 5628 5628 5626 5631 5635 5640 5649 5660 5669 5686 5701 5708 5710 5720 5733 5747 5757 5771 5784 5803 5804 5809 5816 5824 5836 5845 5856 5864 5865 5867 5873 5869 5873 5882 5889 5895
5674 5664 5655 5645 5637 5631 5626 5622 5619 5612 5610 5611 5610 5610 5617 5637 5650 5658 5663 5678 5696 5702 5713 5724 5739 5752 5762 5775 5786 5800 5803 5809 5819 5830 5840 5853 5859 5865 5868 5873 5869 5864 5876 5884 5890
5666 5655 5645 5636 5627 5621 5618 5614 5608 5605 5605 5604 5601 5600 5603 5616 5630 5645 5653 5665 5676 5686 5697 5709 5730 5745 5757 5767 5778 5789 5795 5802 5813 5823 5832 5841 5855 5853 5860 5863 5866 5863 5875 5876 5882
Wind_Speed
17 17 17 17 17 17 17 18 20 23 23 24 25 28 27 25 24 20 18 22 19 18 16 17 15 15 14 10 12 14 17 12 15 11 7 9 6 8 5 7 5 4 5 4 5
21 21 21 20 20 20 20 19 18 17 20 24 24 25 27 27 26 20 26 20 21 19 18 19 19 17 16 15 18 7 14 14 4 12 3 3 6 4 3 2 3 2 3 4 3
25 25 25 25 24 24 23 23 21 20 19 19 22 24 26 29 27 25 23 23 24 21 20 19 21 21 17 18 16 9 6 8 9 16 6 9 4 4 4 2 1 1 1 1 3
25 26 27 28 27 28 27 26 24 23 22 21 19 21 25 28 33 23 25 24 23 23 22 20 21 20 19 19 16 11 3 10 6 9 12 11 7 4 2 3 4 4 3 1 2
29 30 29 29 29 30 30 30 28 26 25 24 22 20 22 25 30 29 29 27 22 22 22 23 23 21 19 16 7 8 10 9 11 6 10 14 8 6 4 2 1 2 4 3 2
33 34 33 33 33 32 32 32 31 30 29 27 25 23 21 20 30 26 30 31 26 24 23 25 24 27 22 20 17 5 11 7 12 11 13 12 9 7 5 2 1 2 1 2 3
36 38 39 38 38 37 37 35 34 33 32 31 28 27 22 25 23 27 28 31 32 29 26 26 28 30 27 23 19 16 11 3 8 11 9 12 8 10 7 5 2 1 1 3 5
38 39 39 41 42 42 41 41 39 37 35 33 33 30 25 27 23 24 30 30 33 32 30 31 31 30 32 25 23 18 12 11 13 7 10 10 10 9 8 7 4 2 1 2 5
39 40 42 41 42 43 44 43 44 43 40 37 35 34 32 27 28 24 27 30 32 36 34 33 32 31 30 30 25 21 16 14 27 10 10 11 8 15 11 10 7 4 2 1 5
39 40 42 42 41 40 41 43 45 45 45 43 39 36 38 35 30 23 24 29 32 34 38 36 33 32 33 31 27 21 16 13 22 15 14 17 21 15 11 12 10 6 3 1 4
34 34 36 36 37 37 38 40 41 46 44 46 44 41 39 37 33 31 28 29 33 36 37 37 39 37 33 29 26 21 14 14 26 17 18 14 14 19 7 15 11 9 5 3 3
35 35 35 34 35 35 35 35 38 42 41 44 46 45 44 40 37 34 31 29 30 34 33 39 43 35 30 31 32 29 25 21 24 24 25 15 14 16 13 15 13 11 7 4 2
35 34 32 31 30 28 28 30 32 35 42 35 46 47 46 44 37 38 36 31 29 30 37 37 31 33 34 35 35 32 31 23 33 33 21 16 17 21 22 18 18 13 9 6 4
31 28 23 22 19 25 24 25 24 26 32 33 40 43 45 45 42 41 40 35 36 32 34 37 31 38 41 38 36 34 34 22 23 28 23 23 21 22 21 20 14 16 11 9 7
24 17 18 20 26 27 26 23 22 22 25 16 31 31 39 42 45 43 40 42 38 31 35 34 39 41 43 39 37 35 33 24 21 23 25 28 29 29 28 22 18 13 12 11 11
17 19 24 24 28 30 27 26 26 23 19 8 18 27 28 34 40 43 45 46 39 35 37 32 39 40 40 41 39 35 31 29 24 23 23 19 23 20 30 27 26 13 14 13 13
23 24 28 30 34 34 34 30 27 24 13 8 10 19 22 31 39 43 44 50 47 45 44 38 41 42 41 38 44 42 33 32 33 32 27 17 29 18 27 30 27 20 19 16 19
30 33 34 37 40 39 34 33 32 28 21 18 15 19 19 29 38 41 44 50 49 47 43 39 39 46 44 44 41 48 41 37 34 31 26 23 31 30 36 17 27 26 25 23 21
35 33 34 34 34 32 29 29 29 28 24 34 35 30 21 19 31 45 39 50 50 51 49 40 38 32 43 44 43 42 45 38 28 24 27 25 27 20 23 14 26 23 18 27 14
33 35 30 30 28 29 33 32 32 31 42 40 39 37 31 27 17 22 36 43 51 47 50 41 24 29 34 36 45 44 39 43 40 35 32 26 25 26 28 30 20 23 18 18 14
33 31 31 27 27 30 34 34 36 46 47 45 43 41 38 37 32 28 23 30 15 34 42 44 36 27 29 46 45 48 47 44 40 34 29 30 26 17 22 27 26 26 17 16 12
34 33 36 30 31 32 34 40 42 44 43 40 43 44 42 42 40 49 36 37 33 45 45 48 43 41 34 36 45 45 51 40 52 39 34 30 30 22 26 25 23 22 16 16 9
38 37 34 28 31 32 37 39 40 39 40 43 45 49 49 49 47 45 54 54 45 46 52 54 55 45 30 31 36 45 43 50 42 44 37 34 29 34 22 18 20 24 30 25 15
44 38 35 35 37 34 34 33 34 40 41 41 44 47 48 52 51 49 45 56 51 55 64 66 62 55 37 33 38 46 50 49 40 50 46 38 26 24 23 26 21 32 32 22 14
45 39 36 36 35 33 28 30 34 38 41 46 50 52 54 55 57 55 48 50 56 59 67 69 68 61 42 36 34 38 49 45 51 42 52 40 32 27 17 29 32 32 32 27 24
44 38 38 35 31 26 25 27 30 35 30 27 30 39 65 59 56 60 55 49 55 65 65 67 70 62 49 44 37 39 39 46 42 48 39 42 34 35 22 12 19 24 27 28 24
44 41 39 37 28 21 19 24 25 14 16 19 19 24 26 65 66 63 67 55 60 56 65 72 68 64 55 51 36 38 39 42 44 41 46 50 37 37 21 39 21 27 14 20 27
Wind_Direction
289 286 284 285 285 282 277 270 265 260 259 257 252 250 247 245 243 232 227 220 220 220 216 213 207 195 204 173 126 108 110 101 20 306 58 350 305 257 215 271 249 239 215 203 221
282 280 280 278 278 278 278 278 275 269 261 256 252 247 247 243 243 234 229 221 220 219 218 208 208 205 204 170 149 41 125 38 342 257 165 170 264 205 247 226 232 282 240 194 193
284 280 277 275 274 274 273 273 274 273 270 264 255 247 242 242 241 229 231 227 221 220 221 211 204 207 203 183 168 134 268 59 304 239 5 279 203 190 149 156 104 92 318 210 152
287 282 279 276 271 268 268 269 269 269 268 267 263 253 242 237 238 233 232 228 224 222 219 213 203 204 201 189 181 170 65 300 246 183 183 251 182 186 177 145 84 71 76 67 147
285 282 279 277 275 271 267 263 263 263 264 264 264 259 250 238 239 229 230 230 223 219 217 215 203 205 200 184 149 221 167 279 296 224 169 223 200 206 244 103 23 85 97 114 130
282 279 276 274 272 271 270 266 260 257 256 258 258 258 256 247 237 234 229 229 225 219 215 218 206 205 199 200 173 205 266 231 243 222 207 201 202 209 225 230 237 39 49 134 114
281 276 272 270 268 266 265 264 263 258 253 251 252 253 254 250 243 231 229 227 224 221 214 217 209 209 209 211 193 186 204 122 237 227 211 219 216 224 220 234 226 144 55 149 114
286 279 275 271 267 263 261 260 259 259 255 250 247 246 244 249 249 231 228 223 224 221 214 214 213 210 209 203 208 198 167 187 257 273 220 224 235 212 220 231 224 233 153 147 136
287 284 280 276 270 265 262 258 255 255 255 251 247 243 239 240 244 236 230 224 220 220 217 212 219 214 211 211 210 188 171 206 183 243 235 221 213 218 216 229 229 229 212 157 152
287 284 282 280 276 272 266 261 257 252 251 250 247 242 238 234 239 240 235 227 221 219 219 214 215 216 216 208 202 181 175 202 254 195 247 240 219 224 233 226 229 236 226 175 143
295 290 287 285 283 280 276 272 261 256 253 248 245 240 239 235 231 231 229 227 220 219 218 216 215 219 214 211 200 177 210 227 233 246 221 274 233 212 278 242 233 236 238 216 161
298 295 291 289 288 285 281 276 272 263 253 251 243 238 239 232 229 230 231 230 229 222 219 218 215 214 214 209 204 177 185 222 265 228 187 243 272 264 249 256 236 240 243 252 195
301 295 290 289 290 288 288 284 277 272 262 246 247 239 235 235 227 224 227 227 227 223 220 222 215 214 213 210 206 199 177 189 244 270 154 200 236 258 260 244 247 239 246 254 240
300 299 296 292 295 300 299 291 283 284 276 271 246 242 237 230 228 224 222 223 223 219 221 219 208 211 212 211 208 196 176 188 248 257 195 193 236 217 258 257 241 263 256 261 255
307 292 292 292 300 306 302 288 281 285 286 286 267 235 236 232 227 223 219 221 222 218 222 213 211 212 209 210 208 200 184 202 214 250 237 225 199 241 217 265 260 243 251 263 270
295 280 284 294 298 303 303 285 279 280 294 280 281 267 232 224 223 222 215 219 215 216 222 212 216 214 213 208 207 202 203 212 217 225 239 249 202 170 260 224 260 254 246 246 260
305 294 293 294 298 298 295 285 272 269 264 259 245 251 218 207 207 213 213 217 214 212 215 208 212 210 211 206 208 204 202 207 218 214 231 235 257 231 199 236 252 219 272 249 248
310 302 293 294 291 290 285 280 265 262 245 225 249 243 246 227 207 200 211 211 214 215 219 215 214 211 206 207 208 209 206 202 210 215 223 219 236 252 246 223 265 208 210 264 245
311 307 305 296 292 287 278 275 268 259 241 244 246 257 264 255 224 205 202 210 212 214 215 211 213 217 214 212 202 207 212 201 203 220 227 222 249 244 241 232 269 203 207 257 245
318 313 315 301 290 280 277 275 266 253 252 250 245 242 244 236 206 235 211 205 212 210 213 208 211 218 220 210 213 209 212 200 196 220 208 219 223 235 233 238 249 208 201 247 248
328 318 326 309 296 284 278 271 254 251 253 248 244 242 241 239 224 185 211 197 206 207 213 201 190 190 216 220 213 211 202 210 200 208 215 205 224 219 249 260 285 255 207 235 274
333 327 322 312 300 291 282 268 267 261 257 247 239 237 228 228 226 217 180 177 199 204 196 204 188 187 199 226 219 217 212 201 201 195 213 207 214 194 228 237 253 239 217 235 238
334 329 323 313 300 289 280 279 273 261 251 247 239 234 228 225 223 224 217 175 197 190 193 198 189 182 178 210 217 215 212 206 210 196 205 217 217 228 206 182 218 192 214 209 178
337 331 329 323 315 296 287 278 270 268 258 251 244 239 232 226 224 222 225 201 187 187 196 196 189 186 195 194 212 214 210 211 201 205 195 211 212 182 170 198 187 214 217 206 211
340 335 332 325 312 301 290 278 274 273 265 262 254 244 233 223 220 219 220 212 197 185 196 199 194 195 180 185 210 226 215 208 204 206 203 198 219 204 170 211 173 213 225 230 226
339 335 332 328 316 305 295 293 286 268 274 252 262 246 239 222 219 215 212 203 203 194 194 199 197 198 180 178 186 222 221 213 209 205 204 200 224 240 179 198 221 231 208 227 223
343 338 339 335 325 313 305 302 305 266 283 257 289 240 237 219 213 216 218 199 200 207 192 197 195 194 180 176 185 205 221 217 204 212 203 196 203 240 235 197 187 223 205 233 221